Vertical_Velocity
-1 -1 -1 -1 -1 -1 0 -0 -0 -0 1 1 0 -0 -1 -0 -1 -1 -1 -1 -1 -1 1 1 0 -1 -0 -11 -1 2 -1 0 -4 -1 -3 -6 -9 0 -0 1 -2 -1 -1 -1 0 0 -1
-1 -0 -1 -1 -1 -0 0 -0 -0 -0 0 -0 -0 -1 -1 -0 -1 -1 -1 -1 -1 -3 -1 -0 -2 3 -7 -13 1 5 0 -0 1 -2 3 -2 -1 0 -0 -0 -0 -0 2 -1 -2 -1 -2
-1 0 -0 -1 -0 -0 -0 -1 -1 0 1 0 -0 -0 0 -0 -1 -1 -1 -1 -0 -1 -2 -2 -2 -2 -6 -3 1 0 5 0 1 -2 -5 1 -1 -3 0 -2 3 -1 -1 -2 -2 -2 -3
-0 0 -0 -0 0 0 1 -0 -1 -0 0 0 0 -0 -0 -1 -1 -0 -1 -2 -1 -1 0 -3 -3 0 -2 5 2 -7 -22 -3 8 2 2 2 2 -4 -4 1 -4 -2 -4 -3 -7 -1 -6
-0 -0 -0 1 1 0 0 -0 -0 0 0 -0 -0 -0 -0 -0 -1 -1 -0 -3 -1 -0 -2 -3 1 0 -1 -5 -10 -0 1 -5 -3 1 1 0 -1 -1 -7 -2 -4 -4 -2 0 -7 -0 0
-0 -0 0 -0 0 -0 -0 -0 -0 -0 -1 -1 -1 -1 0 -0 -0 -1 -0 -3 -1 2 -0 -0 4 -2 -2 -8 -4 -13 10 4 -2 -2 -2 -9 -4 -2 -3 -6 -3 -1 -0 -2 1 -9 -2
-1 -1 0 0 -0 -0 -0 -0 -0 -1 -1 -1 -1 -1 -2 1 0 -1 0 -3 -1 -3 -14 2 -0 -6 -5 -6 -0 -4 -18 -7 -3 -6 -3 -1 -8 0 2 0 -1 1 1 2 -9 -9 11
-1 -1 -0 -0 0 -0 -0 -0 -1 -1 -1 -1 -1 -2 -2 -0 -1 -5 -2 -0 -1 0 -5 1 -2 1 1 2 -3 -12 -12 -9 -6 -0 -4 -8 -1 1 1 0 1 -0 2 -5 -10 -2 16
-1 -1 -0 -1 0 -0 -1 -1 -1 -0 -1 -1 -1 -1 -1 -1 -1 0 -6 -3 -1 0 -5 2 -1 -2 3 -0 3 -4 -13 3 -0 -3 -0 -2 -3 -0 1 -1 -2 -3 4 -1 9 -9 -3
-0 0 -0 -1 -0 0 -1 -0 -1 -1 0 -0 -1 -0 -3 -3 -2 -3 -3 -1 -1 -2 -7 -9 -5 -5 -14 2 0 3 3 5 -7 2 1 -0 -2 1 -0 0 4 1 1 5 1 -0 -4
-0 -0 -0 -1 -1 0 -0 -1 -1 -2 -1 -1 -1 -2 -1 1 -1 -3 -0 -1 -2 -2 -10 -11 -3 7 3 -14 0 -16 2 -6 0 0 -13 -14 -1 -2 0 6 3 -5 5 7 2 0 -3
0 -1 -0 0 -0 -0 -1 -2 -2 -2 -0 -1 -1 -0 -2 -0 -2 -1 -2 -2 -1 -18 -13 -2 1 -3 -8 -6 -2 -4 -6 -5 1 -1 -1 -3 -0 1 2 -1 3 1 -0 -3 -1 -1 -6
0 0 0 -0 -0 -0 -1 -2 -2 -1 -1 -2 -0 -1 -1 -1 -1 0 -1 -1 -12 -15 -8 -5 -2 -1 -0 -2 -4 -2 -1 -6 -7 -9 -4 -6 -2 -2 -1 -2 -4 -6 -6 -7 -14 -9 -8
1 0 -0 -1 -0 1 -1 0 -1 -1 -2 -0 -0 -1 -1 -1 0 1 1 -7 -15 -2 0 -1 -0 -2 -1 1 -1 -3 -2 -2 -2 -3 -1 -0 -21 -2 -2 -5 -3 1 -3 -4 0 1 -7
-1 1 1 -1 -1 -0 -1 -1 -2 -2 -1 0 -1 -1 -4 -2 0 0 1 -10 -4 -1 -0 1 -4 -2 -3 -1 -1 -2 -0 -0 -1 -2 -6 -1 -6 -3 1 -0 -9 -7 -6 -3 1 -1 2
-2 -1 -0 1 -1 -1 -0 -0 -2 -3 -1 -1 -1 -1 -3 -1 -1 -0 -12 -2 -1 -0 -0 -1 -1 -3 0 -1 -4 -5 -2 -6 -2 -1 1 -6 -6 -2 -2 -1 -1 -8 -3 -10 -5 -1 -3
1 -3 -1 -1 0 -0 -1 -1 -1 -2 -3 -0 -1 -2 -1 -0 -0 -6 -6 -1 0 0 0 -2 -0 -1 -1 -1 0 -0 -4 -8 -0 -3 2 -2 -3 -15 -4 -4 -3 -3 -4 -2 -0 2 2
-1 -0 -0 -1 -1 0 -0 1 -1 -2 -1 -0 -1 -5 -3 -1 -13 1 -1 -2 0 0 1 -0 -2 -1 -1 -0 0 0 -1 -3 2 7 -2 -3 -3 -1 -5 -3 -2 -1 -2 -1 4 -5 -2
-1 -1 -0 -1 -1 -1 2 -0 -1 -2 -2 -1 -2 -2 -3 -2 -5 -0 1 0 0 -0 -0 -0 -0 -0 -0 0 -5 1 -0 -1 1 -0 -3 -6 -5 -4 -19 -14 -5 0 -0 -1 0 3 -3
0 0 -1 -1 -1 -1 -0 -0 -0 -2 -2 -2 -2 -7 -4 -8 -0 -5 -1 1 0 0 -0 -0 0 -1 -1 -0 -0 -3 -1 -3 -2 1 5 -1 -0 -8 -7 -12 1 -0 -1 -0 4 3 -1
-2 -1 -1 0 -1 0 -1 -2 -1 -2 -2 -2 -2 0 0 -3 -3 -1 -2 -1 0 0 -0 -0 -1 -0 -3 -1 -1 -1 -0 -4 -2 0 -1 -5 -1 2 -3 -1 3 -1 -1 -1 2 -1 6
-0 0 -1 -2 1 -1 -1 -1 -1 -0 -3 -2 -2 -3 0 -0 0 -2 0 -1 -1 1 -4 -1 0 -1 -0 -2 -7 -3 1 -0 -1 -5 -0 -0 -6 1 -6 -0 -0 0 -0 -0 0 -2 -0
-0 -0 0 -2 -0 2 1 -1 -3 0 1 -1 -2 -2 -1 1 0 -3 -3 -1 -2 -1 -0 -1 -1 0 1 -5 2 -2 1 1 -2 1 -0 1 1 -1 -5 0 -1 -5 -4 1 -2 -1 5
-1 -1 -1 -1 -2 -1 4 2 -3 -2 -2 0 -1 -2 -2 -2 -0 -2 -1 -1 -1 -2 -4 -1 1 -0 0 2 -2 4 1 2 3 -3 1 0 1 -1 -2 -4 -8 -17 -1 1 4 -1 -0
0 -2 -0 -0 -4 1 0 3 -2 -3 -1 -4 -3 -2 -2 -1 1 1 1 -0 0 0 1 0 0 0 -1 -0 -5 -4 -5 -5 -1 0 1 1 0 -2 -1 -0 -13 -3 -4 2 0 -23 1
0 1 -1 -2 -4 2 -2 2 -0 -1 1 -2 -2 -2 -4 -8 -5 0 -1 -0 -2 -0 -1 -0 0 -1 -1 -1 -2 -1 -1 -1 -5 -10 1 -0 -1 -4 -2 1 -1 -8 -4 2 -1 -8 4
1 3 1 0 -6 -1 1 -1 -3 1 2 -1 -4 -2 -2 -4 -1 -2 -2 -4 -0 -1 -2 -1 -2 -0 -0 -0 -1 -1 -2 -1 -3 0 -3 -2 -2 -2 -1 -1 -8 -1 -2 2 -17 -22 -5
-0 1 1 1 -1 -6 -1 4 -3 -0 -2 5 -1 -3 -4 -3 -0 1 -1 -3 -1 -1 -3 -0 -6 -4 -3 -5 -2 -1 -1 -4 -2 -2 -2 -2 -3 -1 -2 -1 -8 -0 -5 -9 -9 -15 1
0 4 -1 0 0 -8 -2 1 2 -1 -3 -1 1 -2 -3 -4 -2 0 1 -0 2 1 -3 -1 -2 -1 -1 -4 -2 -1 0 -1 -2 -4 -1 -10 -9 -7 -8 -10 2 2 1 -0 2 6 -4
Height
1558 1558 1558 1558 1557 1556 1554 1552 1551 1549 1546 1544 1541 1538 1535 1533 1531 1529 1528 1527 1525 1525 1525 1524 1524 1523 1523 1522 1531 1529 1524 1518 1514 1511 1507 1505 1505 1506 1508 1508 1507 1506 1505 1504 1503 1500 1499
1559 1559 1559 1559 1558 1556 1555 1553 1551 1550 1547 1544 1541 1538 1535 1533 1531 1529 1528 1528 1527 1526 1526 1526 1526 1525 1523 1527 1533 1530 1524 1519 1515 1512 1510 1509 1508 1508 1509 1509 1508 1506 1505 1503 1501 1499 1496
1560 1560 1560 1560 1559 1557 1556 1554 1552 1550 1548 1545 1542 1539 1536 1534 1531 1530 1529 1529 1528 1527 1527 1527 1526 1525 1525 1536 1534 1530 1524 1520 1515 1513 1511 1511 1510 1510 1510 1509 1507 1505 1505 1503 1501 1498 1496
1561 1561 1561 1561 1560 1558 1556 1555 1553 1550 1548 1545 1542 1539 1536 1534 1532 1530 1529 1529 1528 1528 1528 1528 1527 1526 1531 1535 1534 1530 1525 1519 1516 1511 1510 1510 1511 1510 1511 1511 1508 1508 1508 1511 1501 1497 1495
1561 1562 1562 1561 1560 1559 1557 1555 1553 1551 1548 1545 1542 1540 1537 1535 1532 1531 1530 1530 1529 1529 1529 1529 1529 1528 1536 1537 1532 1529 1526 1521 1517 1512 1510 1511 1512 1514 1514 1515 1519 1519 1527 1512 1501 1495 1493
1562 1562 1563 1562 1560 1559 1557 1556 1554 1551 1548 1546 1543 1540 1537 1535 1533 1531 1530 1531 1530 1531 1531 1530 1532 1535 1539 1540 1536 1533 1527 1522 1517 1513 1511 1512 1514 1519 1521 1522 1540 1522 1522 1514 1506 1490 1490
1563 1563 1563 1562 1561 1559 1558 1556 1554 1551 1549 1546 1544 1540 1537 1535 1534 1532 1530 1531 1534 1534 1532 1539 1545 1544 1544 1542 1538 1534 1528 1523 1520 1518 1521 1519 1522 1527 1526 1524 1521 1521 1525 1516 1499 1489 1486
1563 1563 1563 1562 1561 1560 1559 1557 1554 1552 1550 1547 1544 1541 1537 1535 1533 1532 1530 1529 1530 1535 1541 1543 1543 1544 1543 1541 1538 1536 1531 1526 1524 1527 1523 1523 1529 1524 1521 1518 1518 1516 1514 1509 1489 1485 1484
1563 1564 1563 1563 1561 1560 1559 1557 1555 1552 1550 1548 1545 1542 1538 1536 1534 1533 1530 1530 1531 1534 1538 1544 1544 1544 1543 1542 1541 1538 1533 1528 1527 1528 1531 1534 1525 1523 1519 1518 1516 1515 1513 1506 1504 1477 1478
1563 1563 1563 1563 1561 1560 1559 1557 1555 1553 1550 1548 1545 1542 1539 1536 1535 1533 1532 1532 1533 1534 1542 1551 1547 1549 1546 1540 1542 1541 1535 1533 1530 1534 1532 1531 1526 1524 1520 1518 1517 1514 1506 1499 1490 1495 1510
1562 1563 1563 1563 1561 1560 1559 1557 1555 1553 1551 1548 1546 1543 1540 1536 1536 1533 1534 1532 1533 1535 1552 1552 1551 1551 1548 1547 1549 1545 1542 1533 1536 1536 1538 1534 1529 1528 1525 1522 1517 1513 1504 1490 1489 1504 1508
1562 1563 1563 1563 1562 1561 1559 1557 1556 1554 1551 1549 1547 1545 1541 1538 1536 1534 1532 1532 1535 1542 1564 1554 1554 1555 1552 1550 1551 1548 1545 1538 1537 1537 1535 1534 1530 1531 1528 1523 1518 1513 1502 1492 1493 1503 1522
1561 1562 1562 1562 1562 1560 1559 1558 1557 1555 1551 1549 1547 1545 1542 1540 1538 1534 1533 1534 1540 1556 1558 1559 1564 1559 1558 1557 1554 1551 1550 1551 1554 1558 1551 1540 1530 1528 1527 1528 1518 1519 1516 1537 1530 1530 1515
1560 1561 1562 1562 1561 1560 1559 1558 1557 1555 1552 1549 1547 1546 1544 1541 1538 1535 1533 1535 1552 1567 1569 1568 1565 1561 1562 1561 1559 1557 1557 1561 1557 1564 1569 1565 1547 1533 1529 1536 1539 1529 1540 1552 1550 1511 1488
1559 1560 1561 1561 1561 1560 1559 1558 1556 1555 1552 1550 1547 1547 1545 1542 1539 1535 1535 1560 1570 1575 1575 1573 1568 1567 1567 1565 1568 1564 1566 1570 1567 1564 1574 1573 1550 1532 1532 1529 1534 1533 1544 1532 1538 1519 1520
1558 1559 1560 1560 1561 1560 1560 1559 1556 1555 1552 1549 1547 1547 1546 1543 1540 1537 1540 1567 1573 1573 1574 1574 1580 1577 1583 1574 1574 1574 1572 1568 1566 1561 1559 1564 1565 1533 1531 1531 1533 1536 1536 1541 1550 1530 1515
1556 1558 1559 1559 1560 1560 1559 1558 1557 1555 1552 1549 1548 1548 1548 1544 1543 1541 1566 1574 1573 1574 1574 1576 1576 1582 1586 1583 1575 1579 1578 1566 1563 1561 1560 1566 1567 1545 1535 1539 1546 1538 1549 1542 1542 1528 1514
1554 1556 1558 1558 1559 1559 1559 1558 1557 1555 1552 1549 1548 1549 1549 1546 1546 1558 1571 1571 1573 1574 1574 1575 1576 1579 1582 1578 1583 1576 1573 1566 1563 1562 1565 1559 1565 1564 1543 1538 1536 1536 1540 1544 1535 1519 1514
1552 1554 1556 1557 1558 1558 1558 1558 1556 1554 1552 1550 1549 1550 1551 1547 1560 1569 1571 1573 1574 1575 1576 1577 1577 1577 1577 1577 1584 1574 1567 1561 1561 1561 1562 1559 1570 1567 1553 1545 1537 1538 1535 1537 1534 1523 1514
1550 1552 1554 1555 1557 1558 1558 1557 1556 1555 1553 1551 1551 1554 1553 1552 1559 1562 1572 1573 1575 1575 1576 1577 1577 1577 1576 1575 1573 1575 1568 1561 1560 1558 1556 1554 1567 1567 1571 1549 1541 1534 1528 1535 1533 1526 1511
1548 1550 1552 1553 1555 1557 1557 1557 1556 1555 1554 1553 1553 1558 1559 1565 1564 1563 1566 1572 1572 1574 1576 1576 1577 1576 1581 1584 1574 1572 1567 1564 1558 1556 1555 1557 1563 1550 1542 1533 1531 1533 1533 1533 1532 1523 1518
1546 1548 1550 1551 1553 1555 1556 1556 1556 1555 1554 1554 1555 1557 1561 1564 1566 1567 1569 1573 1571 1573 1575 1575 1576 1574 1575 1580 1574 1574 1567 1566 1563 1557 1556 1556 1557 1546 1539 1527 1536 1530 1529 1525 1520 1516 1509
1543 1545 1547 1549 1551 1553 1554 1555 1555 1555 1555 1553 1553 1556 1557 1566 1567 1568 1569 1569 1571 1572 1572 1572 1572 1573 1571 1568 1566 1562 1560 1560 1559 1560 1560 1561 1558 1552 1545 1528 1526 1533 1541 1526 1517 1509 1507
1540 1542 1544 1546 1549 1551 1552 1553 1553 1554 1555 1555 1554 1554 1556 1567 1565 1564 1565 1567 1569 1570 1572 1570 1570 1572 1568 1564 1559 1554 1554 1553 1556 1555 1559 1560 1558 1556 1548 1535 1555 1537 1529 1524 1518 1502 1505
1536 1539 1541 1544 1546 1549 1550 1552 1551 1553 1553 1553 1553 1554 1554 1563 1563 1564 1566 1567 1569 1570 1571 1569 1569 1569 1566 1562 1561 1560 1557 1554 1553 1553 1555 1556 1557 1560 1562 1551 1532 1526 1528 1523 1522 1499 1500
1532 1535 1537 1540 1544 1547 1548 1550 1550 1550 1551 1552 1552 1552 1553 1555 1562 1561 1565 1567 1569 1570 1568 1567 1567 1566 1565 1564 1568 1580 1576 1570 1564 1556 1552 1554 1556 1560 1554 1561 1545 1538 1525 1516 1512 1513 1494
1528 1531 1533 1536 1540 1544 1546 1547 1548 1549 1549 1550 1550 1552 1552 1554 1558 1560 1562 1564 1564 1566 1568 1566 1566 1565 1565 1569 1573 1580 1577 1571 1576 1570 1571 1565 1566 1564 1556 1558 1536 1531 1524 1514 1527 1519 1500
1523 1527 1529 1532 1536 1541 1543 1544 1545 1547 1548 1549 1548 1549 1552 1553 1558 1558 1560 1562 1562 1563 1567 1565 1567 1566 1567 1577 1578 1583 1587 1580 1580 1567 1571 1573 1573 1567 1561 1574 1551 1532 1525 1534 1530 1517 1508
1518 1522 1525 1528 1532 1537 1539 1541 1542 1543 1545 1549 1548 1548 1549 1551 1555 1557 1558 1560 1561 1561 1563 1564 1564 1564 1565 1572 1578 1578 1574 1581 1585 1577 1563 1569 1562 1566 1558 1544 1532 1530 1528 1527 1525 1518 1507